User: anonymous   Login
Location: Unspecified
(0.0000°N, 0.0000°E)
Time: 01:08:30
(UTC+00:00)
Language:

STARLINK-31122 - Orbit

View from above orbital plane
View from above orbital plane
View from above satellite
View from above satellite

Ground track
Ground track

The orbit is defined by the following mean orbital elements,

1 58774U          26145.33852701 +.00000000 +00000-0 +11443-3 0 00007
2 58774  53.1611  17.7808 0000918  90.3142 269.7964 15.30186566    02
Epoch (UTC): 25 May 2026 08:07:28
Eccentricity: 0.0000918
inclination: 53.1611°
perigee height: 475 km
apogee height: 476 km
right ascension of ascending node: 17.7808°
argument of perigee: 90.3142°
revolutions per day: 15.30186566
mean anomaly at epoch: 269.7964°

The dashed part of the orbit path shows where the satellite is in the earth's shadow,  

DLR